7 * 24
多渠道服务支持
ONEWEB-0357是一颗由英国发射的卫星,于2021年9月14日升空,隶属于OneWeb星座系统。该星座旨在为全球提供高速低延迟宽带互联网服务,尤其覆盖偏远地区与海上、空中移动场景。作为低轨通信卫星,它工作在近地轨道,凭借低轨道优势缩短信号传输距离,助力OneWeb构建全球无缝连接网络。
英国
(GB)
| 数据来源 | 国际轨道数据 |
| 星历时间: | 2026-09-15T18:22:40+0800 13小时前 查看轨道信息 |
| 半长轴: | 7559.917km |
| 偏心率: | 0.0001797 |
| 轨道倾角: | 87.914° |
| 近地点辐角 | 87.356° |
| 升交点赤经 | 256.430° |
| 平近点角 | 272.778° |
| 近地点: | 1180.421km |
| 远地点: | 1183.139km |
| 周期: | 109.027分钟 |
| 每日圈数: | 13.207703 |